GW3674 Weather Reports


time (UTC)temp
F
wind
direction
speed
knots
gust
knots
rain 1hr
in
rain 24hr
in
rain mn
in
humidity
%
barometer
mb
20260505200027 77 194 6.1 13.0 0.00 0.00 0.00 50 1016.7
20260505194512 77 204 1.7 13.0 0.00 0.00 0.00 51 1016.8
20260505193015 77 158 4.3 11.3 0.00 0.00 0.00 49 1017.4
20260505191523 77 196 7.0 13.0 0.00 0.00 0.00 48 1017.5
20260505190022 77 284 2.6 11.3 0.00 0.00 0.00 47 1017.9
20260505184528 77 221 5.2 11.3 0.00 0.00 0.00 47 1017.7
20260505183013 77 105 3.5 11.3 0.00 0.00 0.00 48 1017.8
20260505181517 77 188 2.6 12.2 0.00 0.00 0.00 48 1017.4
20260505180039 77 205 5.2 9.6 0.00 0.00 0.00 49 1017.7
20260505174527 77 148 1.7 8.7 0.00 0.00 0.00 49 1017.5
20260505173026 77 202 1.7 8.7 0.00 0.00 0.00 48 1017.7
20260505171516 77 74 2.6 7.8 0.00 0.00 0.00 49 1017.7
20260505170022 76 192 1.7 8.7 0.00 0.00 0.00 52 1018.0
20260505164526 76 218 3.5 9.6 0.00 0.00 0.00 50 1018.2
20260505163028 75 230 1.7 9.6 0.00 0.00 0.00 53 1018.4
20260505161528 75 198 4.3 8.7 0.00 0.00 0.00 56 1018.4
20260505153012 75 212 3.5 7.0 0.00 0.00 0.00 58 1018.8
20260505151511 73 159 3.5 8.7 0.00 0.00 0.00 58 1018.8
20260505124518 64 197 1.7 2.6 0.00 0.00 0.00 81 1018.8
20260505123029 61 189 0.0 1.7 0.00 0.00 0.00 82 1018.6
20260505121526 58 189 0.0 0.9 0.00 0.00 0.00 77 1018.4
20260505120027 56 189 0.0 0.0 0.00 0.00 0.00 78 1018.4
20260505114514 55 189 0.0 0.0 0.00 0.00 0.00 78 1018.4
20260505113022 54 189 0.0 0.0 0.00 0.00 0.00 79 1018.2
20260505111521 54 189 0.0 0.0 0.00 0.00 0.00 79 1018.2
20260505101531 53 189 0.0 0.0 0.00 0.00 0.00 80 1017.3
20260505100051 53 189 0.0 0.0 0.00 0.00 0.00 80 1017.2
20260505094530 54 189 0.0 0.0 0.00 0.00 0.00 80 1017.2
20260505093027 54 189 0.0 0.9 0.00 0.00 0.00 80 1017.2
20260505091519 54 189 0.0 0.9 0.00 0.00 0.00 81 1017.0
20260505090005 54 189 0.0 0.9 0.00 0.00 0.00 81 1017.0
20260505084506 54 189 0.0 0.0 0.00 0.00 0.00 81 1016.9
20260505083006 54 189 0.0 0.0 0.00 0.00 0.00 81 1016.9
20260505081514 54 189 0.0 0.0 0.00 0.00 0.00 81 1016.7
20260505080020 55 189 0.0 1.7 0.00 0.00 0.00 82 1016.6
20260505074503 55 189 0.0 0.9 0.00 0.00 0.00 82 1016.6
20260505073027 55 189 0.0 0.9 0.00 0.00 0.00 82 1016.6
20260505071510 55 189 0.0 0.0 0.00 0.00 0.00 83 1016.4
20260505070015 56 189 0.0 0.9 0.00 0.00 0.00 83 1016.4
20260505064521 56 189 0.0 0.9 0.00 0.00 0.00 83 1016.8
20260505063024 56 189 0.0 0.0 0.00 0.00 0.00 83 1016.8
20260505061519 57 189 0.0 1.7 0.00 0.00 0.00 83 1017.0
20260505060015 57 189 0.0 0.9 0.00 0.00 0.00 83 1017.3
20260505054515 57 189 0.0 0.9 0.00 0.00 0.00 83 1017.4
20260505053034 57 189 0.0 1.7 0.00 0.00 0.00 82 1017.5
20260505051537 58 189 0.0 0.0 0.00 0.00 0.00 81 1017.8
20260505041524 60 189 0.0 0.9 0.00 0.00 0.00 76 1017.7
20260505040024 60 189 0.0 1.7 0.00 0.00 0.00 75 1017.7
20260505034512 61 185 0.0 1.7 0.00 0.00 0.00 74 1018.0
20260505033019 61 181 0.0 1.7 0.00 0.00 0.00 72 1017.8
20260505031526 61 181 0.0 1.7 0.00 0.00 0.00 71 1018.0
20260505030025 62 181 0.0 1.7 0.00 0.00 0.00 69 1017.8
20260505024526 62 181 0.9 2.6 0.00 0.00 0.00 68 1017.7
20260505023019 62 180 0.0 3.5 0.00 0.00 0.00 67 1017.8
20260505021518 63 206 0.0 1.7 0.00 0.00 0.00 65 1017.6
20260505020028 63 207 0.0 1.7 0.00 0.00 0.00 63 1017.7
20260505014526 64 207 0.0 1.7 0.00 0.00 0.00 62 1017.7
20260505013030 65 180 0.0 3.5 0.00 0.00 0.00 60 1017.4
20260505011525 65 191 0.9 3.5 0.00 0.00 0.00 59 1017.6
20260505010030 66 189 0.9 3.5 0.00 0.00 0.00 58 1017.2
20260505004524 67 197 0.9 3.5 0.00 0.00 0.00 56 1017.4
20260505003025 67 178 0.9 3.5 0.00 0.00 0.00 54 1017.2
20260505001530 68 219 2.6 5.2 0.00 0.00 0.00 53 1017.2
20260505000035 69 190 2.6 5.2 0.00 0.00 0.00 52 1017.3
20260504234522 69 178 1.7 6.1 0.00 0.00 0.00 51 1016.9
20260504233025 70 204 1.7 7.8 0.00 0.00 0.00 50 1017.0
20260504231510 71 198 4.3 9.6 0.00 0.00 0.00 49 1016.7
20260504230025 71 196 3.5 11.3 0.00 0.00 0.00 51 1016.8
20260504224503 72 234 5.2 10.4 0.00 0.00 0.00 49 1016.6
20260504223006 72 225 4.3 12.2 0.00 0.00 0.00 48 1017.0
20260504221520 72 194 3.5 13.9 0.00 0.00 0.00 48 1016.7
20260504220012 73 215 5.2 13.0 0.00 0.00 0.00 47 1016.8
20260504214522 73 198 6.1 12.2 0.00 0.00 0.00 47 1016.5
20260504213004 73 209 2.6 12.2 0.00 0.00 0.00 46 1016.7
20260504211508 74 184 5.2 12.2 0.00 0.00 0.00 45 1016.8
20260504210010 75 207 6.1 13.0 0.00 0.00 0.00 44 1016.5
20260504204517 75 163 4.3 13.0 0.00 0.00 0.00 45 1016.4
20260504203020 75 231 4.3 15.6 0.00 0.00 0.00 43 1016.4
20260504201506 76 198 7.0 13.0 0.00 0.00 0.00 42 1016.4